LILACSAT-1 (LO-90)

Last updated on Fri Mar 29 2019 00:02:06 GMT+0000 (Coordinated Universal Time)

1 42725U 98067ME 19087.71781172 .15670676 12603-4 45746-3 0 9992 2 42725 51.6064 319.7683 0009359 299.6698 60.5570 16.44549673105565

Satellite not in orbit